DECAYED

STARLINK-2447, 48110 (Decayed)

Orbit data source: Space-Track

STARLINK-2447, 48110 was a payload satellite owned by SpaceX/Seattle (US) in LEO that was launched on Wed, 07 Apr 2021 UTC via an FALCON 9 launch vehicle from the Air Force Eastern Test Range (AFETR). Payload-class satellites include a variety of spacecraft equipped with specific instruments for various scientific and technological missions. These include communications satellites like Starlink; space stations such as the ISS; scientific satellites like the Hubble; Earth observation satellites from companies like Planet Labs, Umbra, and HawkEye 360; GPS; miniature CubeSats for education and research; and military/defense satellites.

Not visible in the next 10 days
Identifier
48110, 2021-027U
Orbit
Decayed
Country
Flag of USUS
Related business
Manufacturer
SpaceX/Seattle
Mission
Decayed Commercial Communications
Bus & Motor
STARLINK, Unknown motor
Mass
260 kg wet, ~248 kg dry
Launch date (UTC)
2021-04-07 (5 years ago)
Launch vehicle
FALCON 9
Launch site
Air Force Eastern Test Range (AFETR)
Object type
Payload
Rocket body
Debris
Shape & HBR
Box + 1 Pan, 10.1 m
Radar Cross Section
13.562 m², Large (>1 m²)

Expand to show TLE details & history
Last TLE update: 1 year ago

TLE from 1 year ago
0 STARLINK-2447
1 48110U 21027U   25088.88619188  .23037357  12194-4  45309-2 0  9992
2 48110  53.0356 234.1239 0009794 301.7628 187.4462 16.30706766220680
Epoch: 2025-03-29T21:16Z
TLE epoch observation values (Epoch: 2025-03-29T21:16:06.978Z)
Latitude
38.38995°
Longitude
-128.78949°
Altitude
200.244 km
Speed
7.788 km/s
True Right ascension
01h 11m 03s
True Declination
38° 12' 31"
Sunlit
Object was in daylight at epoch
Visualization orbit readout
Latitude
Unknown
Longitude
Unknown
Altitude
Unknown
Speed
Unknown
Apparent Right ascension
Unknown
Apparent Declination
Unknown
Sunlit
N/A
Visualization observer readout
Local Sidereal Time
23:07:42
Azimuth
Unknown
Elevation
Unknown
Doppler factor
Unknown
Orbital elements
Apogee altitude
197.363 km
Perigee altitude
184.496 km
Semi-major axis
6,569.066 km
Eccentricity
0.00098
Inclination
53.0356°
RAAN
234.1239°
Arg. of periapsis
301.7628°
True anomaly
187.43167°
Mean anomaly
187.4462°
Eccentric anomaly
187.43893°
Mean motion
4.0765 °/min
Orbital period
88.31 mins
BSTAR
0.0045309
Loading maneuver chart data...
Computing Atmospheric mass density...

Documentation

Showing up to 5 results
|